Location: Gorze? G�rny
(49.8500°N, 19.5000°E)
Time: 03:16:28
(UTC+00:00)

Cosmos 1703 Rocket - Pass Details

Date: 13 May 2021
Orbit: 606 x 633 km, 82.5° (Epoch: 20 June)

Event Time Altitude Azimuth Distance (km) Brightness Sun altitude
Exits shadow 22:46:02 35° 249° (WSW) 998 4.4 -21.5°
Maximum altitude 22:47:08 42° 286° (WNW) 884 4.4 -21.5°
Drops below altitude 10° 22:51:22 10° 358° (N) 2,006 7.3 -21.5°
Sets 22:53:43 0° 5° (N) 2,922 8.6 -21.4°
